AFR122 LFPG-LIML

Flight info

Callsign AFR122
Flight time 0h 35m
Altitude 31000
Route LANVI DCT DEVDI DCT RIPUS DCT GERSA DCT SOSON DCT ODINA
Aircraft B772/H-SDE2E3FGHIJ5LORVWXY/LB1D1

Departure

Time 2026-04-30 09:05
Airport Charles de Gaulle International Airport (LFPG)

Arrival

Time 2026-04-30 09:40
Airport Milano Linate Airport (LIML)
Time Latitude Longitude Altitude Speed Heading
2026-04-30 08:52 49.00044 2.56691 368 ft 0 kts 159°
2026-04-30 09:00 49.00043 2.56691 359 ft 0 kts 159°
2026-04-30 09:00 49.00032 2.56672 363 ft 6 kts 251°
2026-04-30 09:00 49.00017 2.56591 365 ft 1 kts 257°
2026-04-30 09:00 49.00006 2.56578 367 ft 4 kts 216°
2026-04-30 09:01 48.99948 2.56536 365 ft 11 kts 217°
2026-04-30 09:01 48.99911 2.56437 366 ft 11 kts 252°
2026-04-30 09:01 48.99884 2.56320 367 ft 13 kts 232°
2026-04-30 09:01 48.99818 2.56195 360 ft 13 kts 255°
2026-04-30 09:02 48.99792 2.56022 363 ft 8 kts 257°
2026-04-30 09:02 48.99783 2.55935 361 ft 8 kts 263°
2026-04-30 09:02 48.99776 2.55848 364 ft 8 kts 263°
2026-04-30 09:03 48.99770 2.55761 365 ft 8 kts 263°
2026-04-30 09:03 48.99763 2.55673 361 ft 8 kts 263°
2026-04-30 09:03 48.99755 2.55586 361 ft 8 kts 257°
2026-04-30 09:03 48.99737 2.55501 365 ft 10 kts 247°
2026-04-30 09:04 48.99677 2.55445 364 ft 13 kts 158°
2026-04-30 09:04 48.99599 2.55558 365 ft 18 kts 115°
2026-04-30 09:04 48.99597 2.55767 364 ft 33 kts 85°
2026-04-30 09:04 48.99650 2.56718 361 ft 144 kts 83°
2026-04-30 09:05 48.99748 2.58600 689 ft 197 kts 86°
2026-04-30 09:05 48.99784 2.60734 1099 ft 210 kts 89°
2026-04-30 09:05 48.99818 2.62983 1718 ft 209 kts 91°
2026-04-30 09:05 48.99839 2.65146 2616 ft 203 kts 93°
2026-04-30 09:06 48.99818 2.67282 3536 ft 198 kts 91°
2026-04-30 09:06 48.99954 2.69525 4011 ft 230 kts 86°
2026-04-30 09:06 49.00171 2.72054 4737 ft 246 kts 84°
2026-04-30 09:06 49.00418 2.74655 5789 ft 249 kts 85°
2026-04-30 09:07 49.00621 2.77226 6933 ft 248 kts 84°
2026-04-30 09:07 49.00672 2.79868 7734 ft 253 kts 97°
2026-04-30 09:07 49.00367 2.82578 8560 ft 262 kts 102°
2026-04-30 09:07 49.00018 2.85287 9340 ft 259 kts 102°
2026-04-30 09:08 48.99697 2.88001 10028 ft 266 kts 101°
2026-04-30 09:08 48.99387 2.90787 10193 ft 270 kts 100°
2026-04-30 09:08 48.99077 2.93654 10187 ft 278 kts 100°
2026-04-30 09:08 48.98779 2.96549 10190 ft 275 kts 99°
2026-04-30 09:09 48.98526 2.99472 10372 ft 290 kts 98°
2026-04-30 09:09 48.98258 3.02689 10598 ft 321 kts 98°
2026-04-30 09:09 48.97971 3.06170 10955 ft 346 kts 98°
2026-04-30 09:09 48.97666 3.09847 11882 ft 353 kts 98°
2026-04-30 09:10 48.97361 3.13541 13097 ft 351 kts 98°
2026-04-30 09:10 48.97054 3.17215 14240 ft 354 kts 97°
2026-04-30 09:10 48.96742 3.20926 15230 ft 354 kts 98°
2026-04-30 09:10 48.96425 3.24675 16083 ft 360 kts 98°
2026-04-30 09:11 48.96097 3.28507 16858 ft 368 kts 98°
2026-04-30 09:11 48.95762 3.32406 17618 ft 374 kts 98°
2026-04-30 09:11 48.95424 3.36339 18565 ft 376 kts 98°
2026-04-30 09:11 48.95084 3.40273 19211 ft 382 kts 98°
2026-04-30 09:12 48.94734 3.44307 19878 ft 386 kts 97°
2026-04-30 09:12 48.94382 3.48365 20656 ft 387 kts 97°
2026-04-30 09:12 48.94023 3.52462 21281 ft 393 kts 97°
2026-04-30 09:12 48.93675 3.56627 21871 ft 399 kts 96°
2026-04-30 09:13 48.93420 3.60849 22542 ft 402 kts 94°
2026-04-30 09:13 48.93210 3.65098 23280 ft 403 kts 94°
2026-04-30 09:13 48.93008 3.69353 23970 ft 405 kts 94°
2026-04-30 09:13 48.92799 3.73645 24529 ft 408 kts 94°
2026-04-30 09:14 48.92578 3.77970 25073 ft 411 kts 94°
2026-04-30 09:14 48.92352 3.82262 25607 ft 414 kts 95°
2026-04-30 09:14 48.92116 3.86639 26141 ft 417 kts 95°
2026-04-30 09:14 48.91874 3.91063 26648 ft 421 kts 95°
2026-04-30 09:15 48.91628 3.95519 27138 ft 424 kts 95°
2026-04-30 09:15 48.91378 4.00007 27645 ft 427 kts 95°
2026-04-30 09:15 48.91125 4.04522 28162 ft 430 kts 95°
2026-04-30 09:15 48.90870 4.09067 28662 ft 433 kts 95°
2026-04-30 09:16 48.90611 4.13645 29148 ft 436 kts 95°
2026-04-30 09:16 48.90347 4.18253 29617 ft 439 kts 95°
2026-04-30 09:16 48.89892 4.22845 29988 ft 441 kts 105°
2026-04-30 09:16 48.88688 4.27060 30297 ft 440 kts 119°
2026-04-30 09:17 48.87095 4.31081 30419 ft 448 kts 119°
2026-04-30 09:17 48.85525 4.35196 30679 ft 452 kts 118°
2026-04-30 09:17 48.83978 4.39358 30968 ft 454 kts 117°
2026-04-30 09:17 48.82436 4.43557 31244 ft 457 kts 117°
2026-04-30 09:18 48.80886 4.47791 31522 ft 459 kts 117°
2026-04-30 09:18 48.79346 4.51996 31884 ft 460 kts 117°
2026-04-30 09:18 48.77793 4.56224 32299 ft 459 kts 117°
2026-04-30 09:18 48.76238 4.60448 32700 ft 459 kts 117°
2026-04-30 09:19 48.74681 4.64664 33080 ft 459 kts 117°
2026-04-30 09:19 48.73118 4.68889 33464 ft 459 kts 117°
2026-04-30 09:19 48.71552 4.73113 33859 ft 459 kts 117°
2026-04-30 09:19 48.69987 4.77327 34253 ft 459 kts 117°
2026-04-30 09:20 48.68418 4.81545 34616 ft 459 kts 117°
2026-04-30 09:20 48.63381 4.95041 35661 ft 460 kts 117°
2026-04-30 09:20 48.56182 5.11057 36921 ft 464 kts 127°
2026-04-30 09:20 48.47965 5.26446 37747 ft 474 kts 126°
2026-04-30 09:21 48.38512 5.39933 38772 ft 482 kts 148°
2026-04-30 09:21 48.26641 5.49667 39203 ft 493 kts 150°
2026-04-30 09:21 48.02040 5.69002 39184 ft 498 kts 150°
2026-04-30 09:22 47.98930 5.71450 39173 ft 487 kts 150°
2026-04-30 09:22 47.96068 5.74066 39175 ft 481 kts 142°
2026-04-30 09:22 47.91132 5.80754 39188 ft 481 kts 129°
2026-04-30 09:23 47.86731 5.88287 39189 ft 483 kts 129°
2026-04-30 09:23 47.82267 5.95816 39194 ft 486 kts 130°
2026-04-30 09:24 47.68335 6.18850 39228 ft 490 kts 130°
2026-04-30 09:24 47.59646 6.33083 39215 ft 492 kts 130°
2026-04-30 09:25 47.29448 6.82020 39152 ft 496 kts 131°
2026-04-30 09:25 46.92113 7.41229 39212 ft 494 kts 131°
2026-04-30 09:26 46.54579 7.99477 37191 ft 476 kts 131°
2026-04-30 09:26 46.36630 8.26894 31477 ft 465 kts 130°
2026-04-30 09:26 46.19155 8.53364 25223 ft 444 kts 131°
2026-04-30 09:27 46.00410 8.74917 19708 ft 427 kts 153°
2026-04-30 09:27 45.93979 8.79343 18524 ft 419 kts 150°
2026-04-30 09:27 45.91414 8.81319 18281 ft 418 kts 149°
2026-04-30 09:27 45.86890 8.84879 17837 ft 394 kts 149°
2026-04-30 09:28 45.82201 8.88535 17396 ft 373 kts 150°
2026-04-30 09:28 45.78536 8.93112 16883 ft 338 kts 117°
2026-04-30 09:28 45.76250 8.98881 16263 ft 328 kts 117°
2026-04-30 09:28 45.74978 9.02048 15942 ft 322 kts 117°
2026-04-30 09:29 45.73864 9.04807 15709 ft 315 kts 117°
2026-04-30 09:29 45.72783 9.07471 15626 ft 304 kts 117°
2026-04-30 09:29 45.71739 9.10038 15186 ft 298 kts 117°
2026-04-30 09:29 45.70734 9.12541 14693 ft 282 kts 112°
2026-04-30 09:30 45.70253 9.15135 14145 ft 263 kts 85°
2026-04-30 09:30 45.70669 9.17554 13551 ft 244 kts 56°
2026-04-30 09:30 45.71815 9.19217 12951 ft 234 kts 25°
2026-04-30 09:30 45.73366 9.19901 12455 ft 235 kts
2026-04-30 09:31 45.74965 9.20245 11883 ft 230 kts
2026-04-30 09:31 45.76545 9.20534 11276 ft 228 kts
2026-04-30 09:31 45.78109 9.20901 10642 ft 227 kts 19°
2026-04-30 09:31 45.79395 9.22161 9961 ft 228 kts 52°
2026-04-30 09:32 45.79984 9.24232 9287 ft 228 kts 85°
2026-04-30 09:32 45.79686 9.26446 8706 ft 232 kts 118°
2026-04-30 09:32 45.78603 9.28154 8307 ft 238 kts 148°
2026-04-30 09:32 45.77028 9.28825 7859 ft 238 kts 180°
2026-04-30 09:33 45.75425 9.28528 7385 ft 225 kts 191°
2026-04-30 09:33 45.73975 9.28063 6903 ft 209 kts 192°
2026-04-30 09:33 45.72594 9.27614 6454 ft 199 kts 189°
2026-04-30 09:33 45.71284 9.27202 6035 ft 186 kts 189°
2026-04-30 09:34 45.70058 9.26824 5639 ft 177 kts 188°
2026-04-30 09:34 45.68857 9.26462 5176 ft 175 kts 188°
2026-04-30 09:34 45.67694 9.26114 4751 ft 170 kts 188°
2026-04-30 09:34 45.66539 9.25769 4295 ft 167 kts 187°
2026-04-30 09:35 45.65455 9.25447 4047 ft 151 kts 185°
2026-04-30 09:35 45.64424 9.25382 3565 ft 150 kts 171°
2026-04-30 09:35 45.63375 9.25564 3089 ft 148 kts 170°
2026-04-30 09:35 45.62349 9.25663 2821 ft 155 kts 174°
2026-04-30 09:36 45.61280 9.25732 3015 ft 148 kts 169°
2026-04-30 09:36 45.60232 9.25877 2975 ft 157 kts 170°
2026-04-30 09:36 45.59106 9.25989 2961 ft 170 kts 171°
2026-04-30 09:36 45.57920 9.26052 2817 ft 166 kts 172°
2026-04-30 09:37 45.56791 9.26135 2623 ft 160 kts 172°
2026-04-30 09:37 45.55683 9.26243 2368 ft 159 kts 167°
2026-04-30 09:37 45.54600 9.26351 2106 ft 153 kts 171°
2026-04-30 09:37 45.53591 9.26473 1896 ft 142 kts 169°
2026-04-30 09:38 45.52953 9.26539 1751 ft 138 kts 167°
2026-04-30 09:38 45.52004 9.26685 1482 ft 134 kts 166°
2026-04-30 09:38 45.50764 9.26905 1240 ft 140 kts 166°
2026-04-30 09:38 45.49773 9.27057 1095 ft 146 kts 168°
2026-04-30 09:39 45.49079 9.27143 974 ft 148 kts 168°
2026-04-30 09:39 45.48117 9.27266 882 ft 132 kts 167°
2026-04-30 09:39 45.47182 9.27371 722 ft 136 kts 167°
2026-04-30 09:39 45.46251 9.27496 551 ft 137 kts 166°
2026-04-30 09:40 45.45293 9.27610 394 ft 137 kts 168°
2026-04-30 09:40 45.44500 9.27723 368 ft 90 kts 173°
2026-04-30 09:40 45.44183 9.27751 366 ft 3 kts 176°
2026-04-30 09:40 45.44133 9.27760 365 ft 11 kts 161°
2026-04-30 09:41 45.44124 9.27816 367 ft 4 kts 69°
2026-04-30 09:41 45.44164 9.27883 371 ft 13 kts 38°
2026-04-30 09:41 45.44271 9.27982 369 ft 20 kts 20°
2026-04-30 09:41 45.44387 9.27987 367 ft 0 kts 356°